[[{"header":{"parameterUnit":"m.s-1","parameterCategory":1,"la1":30.2991,"la2":30.254,"lo1":-89.0895,"lo2":-89.0444,"dy":0.0017,"dx":0.0017,"nx":28,"ny":28,"refTime":"2024-05-26T03:00:00:Z","depth":0,"parameterNumber":2,"parameterNumberName":"U-component_of_WINDS"},"data":[0,0,0,0,0,0,0,0,0,0,0,0,0,0,0,0,0,0,0,0,0,0,0,0,0,0,0,0,0,0,0,0,0,0,0,0,0,0,0,0,0,0,0,0,0,0,0,0,0,0,0,0,0,0,0,0,0,0,0.172,0.1721,0,0.1784,0.1785,0.1785,0.1784,0.1783,0.1782,0.1781,0.1847,0.1849,0.1852,0,0,0,0,0,0,0,0,0,0,0,0,0,0.1597,0.16,0.172,0.1721,0.1722,0.1784,0.1785,0.1785,0.1784,0.1783,0.1782,0.1781,0.1846,0.1849,0.1852,0,0,0,0,0,0,0,0,0,0,0,0,0,0.1655,0.16,0.172,0.1729,0.173,0.1783,0.1785,0.1786,0.1784,0.1783,0.1782,0.1781,0.1845,0.1849,0.1852,0.1902,0,0,0.1864,0.1866,0,0,0,0,0,0,0,0,0.1651,0.1659,0.1727,0.1728,0.173,0.1775,0.1765,0.1825,0.1785,0.1764,0.1781,0.178,0.1824,0.1829,0.1844,0.1905,0.1907,0.1864,0.1867,0.1868,0.1869,0,0,0,0,0,0,0,0.1648,0.1657,0.1745,0.1728,0.173,0.1729,0.1736,0.1776,0.18,0.1765,0.1766,0.1773,0.1824,0.184,0.1845,0.1908,0.1864,0.1868,0.187,0.1871,0.2011,0.2012,0,0,0,0,0,0,0.1642,0.1653,0.1743,0.1747,0.1687,0.1732,0.174,0.1762,0.18,0.1804,0.1774,0.1773,0.1834,0.1841,0.1848,0.1907,0.1868,0.1872,0.1874,0.201,0.2011,0.2013,0,0,0,0,0,0,0.1639,0.165,0.1741,0.17,0.1712,0.1736,0.176,0.1764,0.1779,0.1806,0.181,0.1786,0.1834,0.1842,0.1888,0.1909,0.1873,0.1877,0.2008,0.201,0.2012,0.2026,0,0,0,0,0,0,0.1636,0.1649,0.1668,0.1701,0.1714,0.178,0.1762,0.1766,0.1786,0.1785,0.1819,0.1823,0.1833,0.1882,0.1892,0.1914,0.188,0.2006,0.2009,0.2011,0.2024,0.2029,0.2033,0,0,0,0,0,0.1631,0.167,0.1669,0.168,0.1739,0.1781,0.1789,0.18,0.1788,0.1807,0.1824,0.1822,0.1905,0.1887,0.1897,0.1921,0.2005,0.2008,0.2011,0.2022,0.2028,0.2032,0,0,0,0,0,0,0.164,0.1674,0.1674,0.1724,0.175,0.1781,0.1806,0.1806,0.1836,0.1833,0.1846,0.1854,0.1899,0.1915,0.1893,0.197,0.1953,0.1959,0.1958,0.1964,0.1968,0.1963,0.1883,0,0,0,0,0,0.1647,0.1679,0.1708,0.175,0.1762,0.1782,0.1801,0.1807,0.1834,0.1845,0.1865,0.1892,0.1924,0.1945,0.1976,0.2026,0.2033,0.2048,0.2052,0.2055,0.206,0.2087,0.2093,0.2023,0.2023,0.2023,0,0,0.1664,0.1687,0.1706,0.1752,0.1772,0.1805,0.1791,0.1826,0.185,0.185,0.1894,0.191,0.194,0.1988,0.201,0.2002,0.208,0.2059,0.2062,0.2065,0.209,0.2097,0.2103,0.2026,0.2025,0.2025,0,0,0.171,0.1731,0.1767,0.1788,0.1819,0.1831,0.184,0.1871,0.1881,0.1925,0.1926,0.1954,0.201,0.2031,0.2048,0.2101,0.21,0.2111,0.2133,0.2159,0.2165,0.2169,0.2187,0.2194,0.2115,0.2115,0.2115,0,0.1726,0.1775,0.1786,0.1821,0.1841,0.1842,0.1878,0.1898,0.1938,0.1951,0.1942,0.201,0.2031,0.2083,0.2095,0.211,0.212,0.2107,0.2163,0.2168,0.2173,0.219,0.2197,0.2116,0.2116,0.2116,0.2116,0,0.1793,0.1827,0.1853,0.189,0.1913,0.1949,0.1965,0.1986,0.199,0.2003,0.2047,0.2072,0.2107,0.212,0.2125,0.2173,0.2167,0.216,0.2144,0.218,0.2197,0.2203,0.2118,0.2117,0.2117,0.2117,0,0,0.1847,0.1889,0.1898,0.1915,0.1949,0.1975,0.201,0.2045,0.2062,0.2089,0.2119,0.2165,0.2158,0.2179,0.2186,0.2208,0.2247,0.2199,0.22,0.2206,0.23,0.2305,0.2312,0.2246,0.2248,0.2249,0.2298,0,0.1896,0.1959,0.1969,0.2024,0.2055,0.2056,0.2086,0.211,0.2123,0.2151,0.2165,0.2197,0.2187,0.2199,0.2221,0.2238,0.2266,0.2234,0.2274,0.2275,0.2266,0.2321,0.2326,0.2371,0.2304,0.2305,0.2306,0,0.1962,0.199,0.2048,0.2076,0.2089,0.2117,0.2148,0.2175,0.2202,0.2209,0.2231,0.2235,0.2271,0.2253,0.2302,0.228,0.2297,0.2307,0.2309,0.2313,0.2292,0.2326,0.2386,0.2392,0.2316,0.2316,0.2315,0,0.1994,0.2046,0.2087,0.2102,0.2136,0.2155,0.217,0.2196,0.2215,0.2243,0.2255,0.2287,0.2304,0.2328,0.234,0.2326,0.2388,0.2371,0.2395,0.2395,0.2408,0.2407,0.2471,0.242,0.2419,0.2419,0.2419,0,0.2047,0.2082,0.2102,0.2127,0.2166,0.2177,0.2216,0.223,0.2253,0.228,0.2283,0.2309,0.2323,0.2351,0.2361,0.24,0.2408,0.2414,0.2416,0.2414,0.2413,0.2425,0.2422,0.2421,0.2421,0.242,0.242,0,0.209,0.2104,0.2149,0.2178,0.2186,0.2213,0.2238,0.2262,0.2274,0.2309,0.2318,0.2338,0.2371,0.2385,0.2425,0.2432,0.2476,0.2476,0.2467,0.2467,0.249,0.2487,0.2563,0.2573,0.2516,0.2516,0.2517,0,0.2122,0.2149,0.2181,0.2199,0.2215,0.2245,0.2265,0.2277,0.2297,0.2329,0.2349,0.2382,0.2408,0.2461,0.2478,0.2509,0.251,0.2534,0.2514,0.251,0.2509,0.2507,0.2509,0.2537,0.2538,0.2539,0.2539,0,0.2179,0.2184,0.2213,0.2244,0.2267,0.2292,0.2316,0.2331,0.2347,0.2369,0.2403,0.2423,0.2464,0.2496,0.2528,0.2543,0.2543,0.2545,0.2552,0.2549,0.2543,0.2546,0.2476,0.2543,0.2543,0.2542,0.2542,0.2542,0.2217,0.224,0.2266,0.2297,0.2317,0.2339,0.2363,0.2378,0.2406,0.244,0.2445,0.2481,0.2506,0.2548,0.2564,0.2592,0.2586,0.2596,0.2599,0.2601,0.2602,0.2539,0.2598,0.2598,0.2597,0.2597,0.2597,0,0.2272,0.2289,0.2317,0.2351,0.2375,0.2373,0.24,0.242,0.2451,0.2475,0.2501,0.2538,0.2569,0.2589,0.262,0.2639,0.2639,0.2646,0.2645,0.2648,0.2606,0.2596,0.2645,0.2645,0.2645,0.2645,0.2645,0.2645,0.2304,0.2344,0.2352,0.2401,0.2417,0.2452,0.2467,0.2487,0.2506,0.2548,0.2573,0.2586,0.2608,0.264,0.2668,0.2673,0.2684,0.2691,0.2696,0.2656,0.2651,0.2646,0.2638,0.2694,0.2694,0.2736,0.2736,0.2736]},{"header":{"parameterUnit":"m.s-1","parameterCategory":1,"la1":30.2991,"la2":30.254,"lo1":-89.0895,"lo2":-89.0444,"dy":0.0017,"dx":0.0017,"nx":28,"ny":28,"refTime":"2024-05-26T03:00:00:Z","depth":0,"parameterNumber":3,"parameterNumberName":"V-component_of_WINDS"},"data":[0,0,0,0,0,0,0,0,0,0,0,0,0,0,0,0,0,0,0,0,0,0,0,0,0,0,0,0,0,0,0,0,0,0,0,0,0,0,0,0,0,0,0,0,0,0,0,0,0,0,0,0,0,0,0,0,0,0,5.667,5.667,0,5.6659,5.6659,5.6659,5.6601,5.66,5.6598,5.6597,5.6587,5.6588,5.6589,0,0,0,0,0,0,0,0,0,0,0,0,0,5.6641,5.6641,5.667,5.667,5.667,5.6659,5.6659,5.6659,5.6601,5.66,5.6598,5.6596,5.6586,5.6588,5.6589,0,0,0,0,0,0,0,0,0,0,0,0,0,5.6644,5.6642,5.667,5.664,5.6637,5.6659,5.6659,5.6659,5.6602,5.66,5.6598,5.6596,5.6586,5.6588,5.6589,5.664,0,0,5.6594,5.6594,0,0,0,0,0,0,0,0,5.6644,5.6645,5.6644,5.6642,5.6639,5.6629,5.6645,5.6653,5.6602,5.6615,5.6597,5.6595,5.6603,5.6603,5.6605,5.664,5.6639,5.6594,5.6595,5.6595,5.6596,0,0,0,0,0,0,0,5.6644,5.6645,5.6666,5.6644,5.6641,5.6627,5.6625,5.6646,5.6621,5.6614,5.661,5.6609,5.6601,5.6604,5.6605,5.6639,5.6594,5.6595,5.6596,5.6597,5.6714,5.6716,0,0,0,0,0,0,5.6648,5.6646,5.6666,5.6665,5.6636,5.6629,5.6627,5.6634,5.662,5.6616,5.6611,5.6606,5.6602,5.6603,5.6604,5.6662,5.6595,5.6597,5.6598,5.6712,5.6715,5.6717,0,0,0,0,0,0,5.6647,5.665,5.6666,5.6654,5.6655,5.6632,5.6641,5.6635,5.6638,5.6618,5.6613,5.6619,5.6601,5.6602,5.6631,5.6661,5.6597,5.6599,5.671,5.6713,5.6716,5.6779,0,0,0,0,0,0,5.6647,5.665,5.6669,5.6655,5.6656,5.6694,5.6642,5.6637,5.6641,5.6635,5.6624,5.662,5.6599,5.6629,5.6633,5.6662,5.66,5.6707,5.6711,5.6715,5.6774,5.6784,5.6793,0,0,0,0,0,5.6646,5.6687,5.667,5.6673,5.6679,5.6696,5.6696,5.6671,5.6644,5.6663,5.665,5.6621,5.6658,5.6633,5.6636,5.6666,5.6705,5.671,5.6715,5.677,5.6782,5.6792,0,0,0,0,0,0,5.6705,5.6685,5.6666,5.6704,5.6702,5.6686,5.6708,5.6685,5.669,5.6684,5.6653,5.6651,5.6685,5.6679,5.6652,5.6715,5.6676,5.6682,5.6717,5.6729,5.6738,5.6738,5.6601,0,0,0,0,0,5.6723,5.6738,5.6719,5.6755,5.6755,5.6732,5.6738,5.6719,5.6716,5.6715,5.6704,5.6702,5.6713,5.6721,5.673,5.6774,5.677,5.6796,5.6805,5.6813,5.6818,5.684,5.6851,5.6734,5.6733,5.6733,0,0,5.6759,5.675,5.6761,5.6767,5.6763,5.6779,5.6732,5.6751,5.6762,5.6718,5.6744,5.6737,5.6732,5.6769,5.6785,5.6765,5.685,5.6819,5.6826,5.6826,5.6846,5.6858,5.6868,5.6737,5.6736,5.6736,0,0,5.6833,5.6828,5.6857,5.6854,5.6849,5.6834,5.6841,5.6829,5.6822,5.6848,5.6815,5.6829,5.6849,5.6847,5.6848,5.6924,5.6897,5.6928,5.6975,5.6997,5.7006,5.7014,5.704,5.705,5.6933,5.6933,5.6933,0,5.6879,5.6902,5.6875,5.6896,5.6899,5.686,5.6889,5.6888,5.6886,5.6889,5.6867,5.6891,5.6886,5.6921,5.694,5.6943,5.695,5.6928,5.7007,5.7015,5.7022,5.7046,5.7056,5.6937,5.6936,5.6936,5.6936,0,5.6958,5.6974,5.6998,5.6997,5.7003,5.7029,5.7006,5.7015,5.6996,5.6984,5.7011,5.7004,5.701,5.7018,5.6999,5.7051,5.7039,5.7013,5.6973,5.7037,5.7059,5.7069,5.6942,5.6941,5.694,5.6939,0,0,5.7067,5.7052,5.7061,5.706,5.7052,5.7064,5.7088,5.7094,5.7103,5.7104,5.7122,5.7141,5.7117,5.7119,5.71,5.712,5.7179,5.7091,5.709,5.7106,5.7234,5.7253,5.7264,5.7162,5.7163,5.7165,5.7234,0,5.7137,5.7175,5.7153,5.7195,5.7209,5.7173,5.7194,5.7191,5.7181,5.7192,5.718,5.7193,5.7161,5.7162,5.718,5.7168,5.7203,5.7163,5.7178,5.7179,5.7178,5.7275,5.7295,5.736,5.7243,5.7244,5.7245,0,5.7223,5.7227,5.7271,5.726,5.7265,5.7284,5.7288,5.73,5.7296,5.7287,5.729,5.7267,5.7289,5.7252,5.7282,5.7255,5.7261,5.7256,5.7258,5.7257,5.7215,5.7276,5.7381,5.739,5.7259,5.7258,5.7257,0,5.7296,5.7313,5.7341,5.7342,5.7331,5.7345,5.7341,5.7336,5.7341,5.7345,5.7348,5.7356,5.7359,5.7365,5.7344,5.7319,5.7377,5.7338,5.737,5.737,5.7382,5.7381,5.7488,5.7389,5.7389,5.7388,5.7388,0,5.7376,5.7403,5.7374,5.7391,5.7422,5.7396,5.7427,5.7419,5.7415,5.743,5.74,5.7415,5.7387,5.7399,5.7384,5.7411,5.7413,5.7406,5.7401,5.7408,5.7408,5.7409,5.7404,5.7391,5.739,5.739,5.7389,0,5.7462,5.7444,5.7472,5.7459,5.7457,5.748,5.7469,5.7484,5.7472,5.7492,5.7495,5.7476,5.7489,5.7469,5.748,5.7469,5.7507,5.7496,5.7507,5.7504,5.7536,5.7533,5.7646,5.7659,5.7553,5.7554,5.7555,0,5.7513,5.7533,5.7523,5.7531,5.7529,5.7542,5.7548,5.7524,5.7531,5.7529,5.7545,5.7555,5.7562,5.7584,5.7571,5.758,5.7568,5.7607,5.7569,5.7575,5.7567,5.7565,5.7567,5.7614,5.7615,5.7616,5.7617,0,5.7605,5.7595,5.7604,5.761,5.7618,5.7621,5.7623,5.7631,5.7606,5.7616,5.7628,5.7634,5.7645,5.7656,5.7661,5.7657,5.7633,5.763,5.7637,5.7643,5.7649,5.7645,5.7527,5.7627,5.7626,5.7625,5.7625,5.7624,5.7674,5.769,5.7685,5.7697,5.7696,5.7698,5.7712,5.7702,5.7712,5.7719,5.7704,5.7721,5.7718,5.7722,5.7721,5.7733,5.7716,5.7727,5.773,5.7733,5.7737,5.7648,5.7735,5.7734,5.7734,5.7734,5.7733,0,5.7763,5.7758,5.7769,5.7772,5.7781,5.7759,5.7759,5.7768,5.7783,5.7782,5.779,5.7805,5.7815,5.7804,5.7812,5.7824,5.7813,5.7827,5.7825,5.7824,5.7753,5.7745,5.7836,5.7836,5.7836,5.7836,5.7835,5.7835,5.781,5.7836,5.7826,5.7852,5.7847,5.7863,5.7865,5.7867,5.7866,5.7884,5.7893,5.7885,5.788,5.7888,5.7897,5.7893,5.7897,5.7914,5.7907,5.784,5.7829,5.782,5.7812,5.7916,5.7916,5.7977,5.7978,5.7978]}]]